Asheville, NC

12:47 AM EST on December 12, 2019 (GMT -0500)
Asheville Regional

Weather History for KAVL - September, 2019

Change the Weather History Date:

Monday, September 23, 2019

  Actual Average Record
Temperature  
Mean Temperature 70 °F 64 °F  
Max Temperature 86 °F 75 °F 89 °F (1941)
Min Temperature 53 °F 53 °F 35 °F (1983)
Degree Days  
Heating Degree Days 0 3  
Month to date heating degree days 2 26  
Since 1 July heating degree days 2 28  
Cooling Degree Days 5 2  
Month to date cooling degree days 201 86  
Year to date cooling degree days 1207 843  
Growing Degree Days 20 (Base 50)    
Moisture  
Dew Point 54 °F    
Average Humidity 64    
Maximum Humidity 93    
Minimum Humidity 35    
Precipitation  
Precipitation 0.00 in 0.11 in 3.41 in (1975)
Month to date precipitation 0.40 2.98  
Year to date precipitation 42.11 34.59  
Snow  
Snow 0.00 in 0.00 in 0.00 in ()
Month to date snowfall 0.0 0.0  
Since 1 July snowfall 0.0 0.0  
Since 1 September snowfall 0.0 0.0  
Snow Depth 0.00 in    
Sea Level Pressure  
Sea Level Pressure 30.09 in    
Wind  
Wind Speed 6 mph (NNW)    
Max Wind Speed 15 mph    
Max Gust Speed 19 mph    
Visibility 8 miles    
Events Fog    
T = Trace of Precipitation, MM = Missing Value Source: NWS Daily Summary

Daily Weather History Graph

Daily Weather History Graph

Search for Another Location

Airport or City:

Astronomy

Sep. 23, 2019 Rise Set
Actual Time 7:18 AM EDT 7:25 PM EDT
Civil Twilight 6:53 AM EDT 7:51 PM EDT
Nautical Twilight 6:23 AM EDT 8:20 PM EDT
Astronomical Twilight 5:53 AM EDT 8:50 PM EDT
Moon 1:14 AM EDT (9/23) 4:05 PM EDT (9/23)
Length of Visible Light 12h 57m
Length of Day
12h 07m
Waning Crescent, 33% of the Moon is Illuminated
Sep 23
Waning Crescent
Sep 28
New
Oct 5
First Quarter
Oct 13
Full
Oct 21
Last Quarter

Hourly Weather History & Observations

Time (EDT) Temp. Heat Index Dew Point Humidity Pressure Visibility Wind Dir Wind Speed Gust Speed Precip Events Conditions
12:54 AM 61.0 °F - 57.0 °F 87% 30.12 in 10.0 mi Calm Calm - N/A   Clear
1:54 AM 59.0 °F - 55.9 °F 90% 30.12 in 10.0 mi Calm Calm - N/A   Clear
2:54 AM 57.9 °F - 55.0 °F 90% 30.13 in 10.0 mi Calm Calm - N/A   Clear
3:54 AM 55.0 °F - 53.1 °F 93% 30.12 in 8.0 mi SSE 3.5 mph - N/A   Partly Cloudy
4:54 AM 55.9 °F - 53.1 °F 90% 30.11 in 10.0 mi Calm Calm - N/A   Clear
5:54 AM 55.9 °F - 52.0 °F 87% 30.11 in 10.0 mi Calm Calm - N/A   Partly Cloudy
6:12 AM 54.0 °F - 51.1 °F 90% 30.18 in 10.0 mi Calm Calm - N/A   Mostly Cloudy
6:31 AM 54.0 °F - 51.1 °F 90% 30.18 in 1.5 mi Calm Calm - N/A   Overcast
6:34 AM 54.0 °F - 52.0 °F 93% 30.18 in 0.8 mi Calm Calm - N/A   Overcast
6:54 AM 53.1 °F - 52.0 °F 96% 30.13 in 1.8 mi Calm Calm - N/A   Overcast
7:03 AM 54.0 °F - 52.0 °F 93% 30.19 in 3.0 mi Calm Calm - N/A   Overcast
7:16 AM 53.1 °F - 51.1 °F 93% 30.19 in 0.8 mi Calm Calm - N/A   Mostly Cloudy
7:39 AM 53.1 °F - 51.1 °F 93% 30.19 in 0.2 mi Calm Calm - N/A Fog Fog
7:43 AM 53.1 °F - 51.1 °F 93% 30.19 in 1.0 mi Calm Calm - N/A   Mist
7:49 AM 53.6 °F - 51.8 °F 94% 30.19 in 3.0 mi Calm Calm - N/A   Scattered Clouds
7:54 AM 54.0 °F - 52.0 °F 93% 30.14 in 4.0 mi Calm Calm - N/A   Scattered Clouds
8:54 AM 57.9 °F - 54.0 °F 87% 30.13 in 10.0 mi Calm Calm - N/A   Clear
9:54 AM 66.0 °F - 55.9 °F 70% 30.13 in 10.0 mi Calm Calm - N/A   Clear
10:54 AM 73.9 °F - 55.9 °F 53% 30.11 in 10.0 mi North 5.8 mph - N/A   Clear
11:54 AM 79.0 °F - 54.0 °F 42% 30.09 in 10.0 mi North 8.1 mph - N/A   Clear
12:54 PM 81.0 °F 80.7 °F 55.0 °F 41% 30.07 in 10.0 mi North 8.1 mph - N/A   Clear
1:54 PM 82.9 °F 81.9 °F 54.0 °F 37% 30.04 in 10.0 mi North 11.5 mph 18.4 mph N/A   Clear
2:54 PM 84.0 °F 83.0 °F 55.9 °F 38% 30.01 in 10.0 mi Variable 4.6 mph - N/A   Clear
3:54 PM 86.0 °F 84.7 °F 55.9 °F 36% 29.99 in 10.0 mi WNW 6.9 mph - N/A   Clear
4:54 PM 86.0 °F 84.7 °F 55.9 °F 36% 29.98 in 10.0 mi NNW 9.2 mph - N/A   Mostly Cloudy
5:54 PM 82.9 °F 82.4 °F 57.0 °F 41% 29.98 in 10.0 mi NNW 8.1 mph - N/A   Mostly Cloudy
6:54 PM 80.1 °F 80.2 °F 55.9 °F 43% 29.99 in 10.0 mi NNW 9.2 mph - N/A   Overcast
7:54 PM 78.1 °F - 55.9 °F 46% 30.00 in 10.0 mi NNW 9.2 mph - N/A   Overcast
8:54 PM 77.0 °F - 57.0 °F 50% 30.00 in 10.0 mi North 6.9 mph - N/A   Overcast
9:54 PM 75.0 °F - 59.0 °F 57% 29.99 in 10.0 mi NNW 11.5 mph - N/A   Overcast
10:54 PM 72.0 °F - 60.1 °F 66% 29.99 in 10.0 mi NNW 10.4 mph - N/A   Overcast
11:54 PM 70.0 °F - 61.0 °F 73% 29.97 in 10.0 mi NNW 10.4 mph - N/A   Clear